Voltar ao catálogo

TIANMU-1 15

AtivoMeteoSSO
NORAD 58700·PAYLOAD·🇨🇳 China

Lançado Jan 5, 2024 de Jiuquan Satellite Launch Center

Loading…

Próximas Passagens (próximas 24 horas)

TLE

AtualizadoSource: Space-Track

Época: Sep 14, 2026, 22:25 UTC

1 58700U 24004A   26257.93460612  .00005101  00000-0  19258-3 0  9998
2 58700  97.4671  84.1639 0007890  30.7499 329.4201 15.27447381149471

Acompanhe TIANMU-1 15 em tempo real com AllMySat

Download on the App Store